Content
SEND FEEDBACK

Daily
Averages
Monthly
Summary
Canada

VANCOUVER, BRITISH COLUMBIA


Home > North America > Canada > British Columbia
Elevation: 7 feet     Latitude: 49 11N     Longitude: 123 10W

WEATHER
 
SELECT A DAY
Number of Records: 249,143;   Date Range: 5/15/97 - 4/22/14
 
SHARE

PRINT THIS DATA

[ ← Previous Day ]
WEATHER ALMANAC - JANUARY 20, 2013
[ Next Day → ]
[ °C ]   °F
Weather ElementAverageHighLow
Temperature38.3 °F39.2 °F (12:35 am)37.4 °F (7:15 am)
Dewpoint37.3 °F39.2 °F (4:15 am)35.6 °F (3:15 pm)
Humidity96.1 %100 % (4:15 am)93 % (12:35 am)
Barometer30.34 in30.39 in (1:35 am)30.28 in (8:35 pm)
Wind Speed7.8 mph10.4 mph (3:35 am)
Weather ElementAverage
Visibility9.9 mi
Wind DirectionNNW (340 °)

Weather ElementTotal
Precipitation---
Heating Degree Days26.7 (Base 65)
Averaged from 69 records on January 20, 2013
WEATHER CONDITIONS BREAKOUT
WIND DIRECTION BREAKOUT
WEATHER BY HOUR - JANUARY 20, 2013
[ °C ]   °F
Local TimeTemperatureDewpointHumidityBarometerVisibilityWind DirectionWind SpeedGust SpeedPrecipitationEventsConditions
12:35 AM39.2 °F37.4 °F93 %30.38 in10.0 miNorth (360°)6.9 mphMostly Cloudy
12:55 AM39.2 °F37.4 °F93 %30.38 in10.0 miNorth (360°)4.6 mphMostly Cloudy
1:15 AM39.2 °F37.4 °F93 %30.38 in10.0 miNorth (360°)6.9 mphMostly Cloudy
1:35 AM39.2 °F37.4 °F93 %30.39 in10.0 miNorth (350°)6.9 mphMostly Cloudy
1:55 AM39.2 °F37.4 °F93 %30.39 in10.0 miNorth (360°)8.1 mphOvercast
2:15 AM39.2 °F37.4 °F93 %30.39 in10.0 miNorth (350°)8.1 mphMostly Cloudy
2:35 AM39.2 °F37.4 °F93 %30.39 in10.0 miNorth (350°)8.1 mphMostly Cloudy
2:55 AM39.2 °F37.4 °F93 %30.39 in10.0 miNNW (340°)8.1 mphOvercast
3:15 AM39.2 °F37.4 °F93 %30.39 in10.0 miNorth (350°)8.1 mphOvercast
3:35 AM39.2 °F37.4 °F93 %30.39 in10.0 miNorth (350°)10.4 mphOvercast
4:15 AM39.2 °F39.2 °F100 %30.38 in10.0 miNorth (350°)8.1 mphOvercast
4:35 AM39.2 °F37.4 °F93 %30.38 in10.0 miNorth (350°)6.9 mphOvercast
4:55 AM39.2 °F37.4 °F93 %30.38 in10.0 miNorth (360°)6.9 mphMostly Cloudy
5:15 AM39.2 °F37.4 °F93 %30.38 in10.0 miNorth (350°)8.1 mphOvercast
5:35 AM39.2 °F37.4 °F93 %30.38 in10.0 miNorth (360°)6.9 mphOvercast
5:55 AM39.2 °F37.4 °F93 %30.38 in10.0 miNorth (10°)5.8 mphOvercast
6:15 AM39.2 °F37.4 °F93 %30.38 in10.0 miNorth (360°)9.2 mphOvercast
6:35 AM39.2 °F37.4 °F93 %30.37 in10.0 miNorth (360°)8.1 mphOvercast
6:55 AM39.2 °F37.4 °F93 %30.37 in10.0 miNorth (360°)6.9 mphOvercast
7:15 AM37.4 °F37.4 °F100 %30.37 in10.0 miNorth (360°)5.8 mphOvercast
7:35 AM37.4 °F37.4 °F100 %30.37 in10.0 miNorth (360°)8.1 mphOvercast
7:55 AM37.4 °F37.4 °F100 %30.38 in10.0 miNorth (360°)8.1 mphOvercast
8:15 AM37.4 °F37.4 °F100 %30.38 in10.0 miNorth (360°)8.1 mphOvercast
8:35 AM37.4 °F37.4 °F100 %30.38 in10.0 miNorth (350°)9.2 mphOvercast
8:55 AM39.2 °F37.4 °F93 %30.38 in10.0 miNorth (350°)8.1 mphOvercast
9:15 AM39.2 °F37.4 °F93 %30.39 in10.0 miNorth (10°)4.6 mphScattered Clouds
9:35 AM39.2 °F37.4 °F93 %30.39 in10.0 miNorth (360°)8.1 mphMostly Cloudy
9:55 AM39.2 °F37.4 °F93 %30.39 in10.0 miNorth (350°)8.1 mphMostly Cloudy
10:15 AM39.2 °F37.4 °F93 %30.39 in10.0 miNorth (360°)6.9 mphMostly Cloudy
10:35 AM39.2 °F37.4 °F93 %30.39 in10.0 miNorth (360°)6.9 mphOvercast
10:55 AM39.2 °F37.4 °F93 %30.39 in10.0 miNorth (360°)6.9 mphOvercast
11:15 AM39.2 °F37.4 °F93 %30.38 in10.0 miNorth (360°)9.2 mphMostly Cloudy
11:35 AM39.2 °F37.4 °F93 %30.38 in10.0 miNorth (10°)6.9 mphMostly Cloudy
11:55 AM39.2 °F37.4 °F93 %30.37 in10.0 miNorth (360°)8.1 mphOvercast
12:15 PM39.2 °F37.4 °F93 %30.37 in10.0 miNorth (360°)8.1 mphOvercast
12:35 PM39.2 °F37.4 °F93 %30.36 in10.0 miNorth (350°)8.1 mphOvercast
12:55 PM39.2 °F37.4 °F93 %30.34 in10.0 miNorth (350°)8.1 mphOvercast
1:15 PM39.2 °F37.4 °F93 %30.34 in10.0 miNorth (350°)8.1 mphMostly Cloudy
1:35 PM39.2 °F37.4 °F93 %30.33 in10.0 miNorth (350°)9.2 mphMostly Cloudy
1:55 PM39.2 °F37.4 °F93 %30.33 in10.0 miNorth (350°)9.2 mphOvercast
2:15 PM39.2 °F37.4 °F93 %30.32 in10.0 miNorth (360°)9.2 mphMostly Cloudy
2:35 PM37.4 °F37.4 °F100 %30.32 in10.0 miNorth (360°)8.1 mphOvercast
2:55 PM37.4 °F37.4 °F100 %30.32 in10.0 miNorth (350°)8.1 mphOvercast
3:15 PM37.4 °F35.6 °F93 %30.32 in10.0 miNorth (360°)6.9 mphOvercast
3:35 PM37.4 °F35.6 °F93 %30.32 in10.0 miNorth (360°)6.9 mphOvercast
3:55 PM37.4 °F37.4 °F100 %30.31 in10.0 miNorth (360°)6.9 mphOvercast
4:15 PM37.4 °F37.4 °F100 %30.31 in10.0 miNorth (350°)8.1 mphOvercast
4:35 PM37.4 °F37.4 °F100 %30.31 in10.0 miNorth (360°)5.8 mphOvercast
4:55 PM37.4 °F37.4 °F100 %30.31 in10.0 miNorth (350°)8.1 mphOvercast
5:15 PM37.4 °F37.4 °F100 %30.30 in10.0 miNorth (350°)8.1 mphOvercast
5:35 PM37.4 °F37.4 °F100 %30.30 in10.0 miNNW (340°)9.2 mphOvercast
5:55 PM37.4 °F35.6 °F93 %30.30 in10.0 miNorth (360°)9.2 mphOvercast
6:15 PM37.4 °F37.4 °F100 %30.29 in10.0 miNorth (350°)9.2 mphOvercast
6:35 PM37.4 °F37.4 °F100 %30.29 in10.0 miNorth (350°)8.1 mphOvercast
6:55 PM37.4 °F37.4 °F100 %30.29 in10.0 miNorth (360°)8.1 mphOvercast
7:15 PM37.4 °F37.4 °F100 %30.29 in10.0 miNorth (360°)6.9 mphOvercast
7:55 PM37.4 °F37.4 °F100 %30.29 in10.0 miNNW (340°)5.8 mphOvercast
8:15 PM37.4 °F37.4 °F100 %30.29 in10.0 miNorth (360°)10.4 mphOvercast
8:35 PM37.4 °F37.4 °F100 %30.28 in10.0 miNorth (360°)6.9 mphOvercast
8:55 PM37.4 °F37.4 °F100 %30.28 in10.0 miNorth (350°)9.2 mphOvercast
9:15 PM37.4 °F37.4 °F100 %30.29 in10.0 miNorth (360°)9.2 mphOvercast
9:35 PM37.4 °F37.4 °F100 %30.29 in10.0 miNorth (350°)9.2 mphOvercast
9:55 PM37.4 °F37.4 °F100 %30.29 in10.0 miNorth (360°)8.1 mphOvercast
10:15 PM37.4 °F37.4 °F100 %30.29 in10.0 miNorth (360°)9.2 mphOvercast
10:35 PM37.4 °F37.4 °F100 %30.29 in10.0 miNorth (360°)6.9 mphOvercast
10:55 PM37.4 °F37.4 °F100 %30.29 in10.0 miNorth (360°)8.1 mphOvercast
11:15 PM37.4 °F37.4 °F100 %30.29 in10.0 miNorth (350°)8.1 mphOvercast
11:35 PM37.4 °F37.4 °F100 %30.28 in8.0 miNNW (340°)8.1 mphOvercast
11:55 PM37.4 °F37.4 °F100 %30.28 in7.0 miNorth (360°)6.9 mphOvercast
Hourly data recorded from CZBB, located 0.75 miles away from Vancouver, British Columbia







STORIES FROM OUR PARTNERS